Weather History for Mosinee, WI

Change the Weather History Date:

Tuesday, April 8, 2014

  Actual Average Record
Temperature  
Mean Temperature 42 °F -  
Max Temperature 53 °F 48 °F 64 °F (2005)
Min Temperature 32 °F 29 °F 10 °F (1997)
Degree Days  
Heating Degree Days 22    
Moisture  
Dew Point 32 °F    
Average Humidity 80    
Maximum Humidity 100    
Minimum Humidity 44    
Precipitation  
Precipitation 0.00 in - - ()
Sea Level Pressure  
Sea Level Pressure 29.79 in    
Wind  
Wind Speed 9 mph (NW)    
Max Wind Speed 18 mph    
Max Gust Speed 22 mph    
Visibility 10 miles    
Events      
Averages and records for this station are not official NWS values.
T = Trace of Precipitation, MM = Missing Value Source: NWS Daily Summary

Daily Weather History Graph

Daily Weather History Graph

Search for Another Location

Airport:

Trip Planner

Search our weather history database for the weather conditions in past years. The results will help you decide how hot, cold, wet, or windy it might be!

Date:

Astronomy

Apr. 08, 2014 Rise Set
Actual Time 6:26 AM CDT 7:35 PM CDT
Civil Twilight 5:56 AM CDT 8:05 PM CDT
Nautical Twilight 5:20 AM CDT 8:41 PM CDT
Astronomical Twilight 4:42 AM CDT 9:19 PM CDT
Moon 1:14 PM CDT (4/8) 2:54 AM CDT (4/8)
Length of Visible Light 14h 08m
Length of Day
13h 08m
Waxing Gibbous, 63% of the Moon is Illuminated
Apr 8
Waxing Gibbous
Apr 15
Full
Apr 22
Last Quarter
Apr 29
New
May 6
First Quarter

Hourly Weather History & Observations

Time (CDT) Temp. Windchill Dew Point Humidity Pressure Visibility Wind Dir Wind Speed Gust Speed Precip Events Conditions
12:15 AM 37.4 °F 30.8 °F 33.8 °F 87% 29.70 in 10.0 mi NNW 9.2 mph - N/A   Clear
12:35 AM 35.6 °F 27.1 °F 33.8 °F 93% 29.70 in 10.0 mi NNW 12.7 mph - N/A   Clear
12:55 AM 37.4 °F 30.3 °F 33.8 °F 87% 29.70 in 10.0 mi NNW 10.4 mph - N/A   Scattered Clouds
1:15 AM 37.4 °F 30.8 °F 33.8 °F 87% 29.70 in 10.0 mi NNW 9.2 mph - N/A   Mostly Cloudy
1:35 AM 37.4 °F 30.3 °F 33.8 °F 87% 29.70 in 10.0 mi NNW 10.4 mph - N/A   Mostly Cloudy
1:55 AM 37.4 °F 30.3 °F 33.8 °F 87% 29.70 in 10.0 mi NNW 10.4 mph - N/A   Overcast
2:15 AM 37.4 °F 31.4 °F 33.8 °F 87% 29.70 in 10.0 mi NNW 8.1 mph - N/A   Overcast
2:35 AM 35.6 °F 29.2 °F 33.8 °F 93% 29.70 in 10.0 mi NNW 8.1 mph - N/A   Mostly Cloudy
2:55 AM 33.8 °F 27.0 °F 33.8 °F 100% 29.70 in 10.0 mi NW 8.1 mph - N/A   Scattered Clouds
3:15 AM 33.8 °F 28.6 °F 33.8 °F 100% 29.70 in 10.0 mi NW 5.8 mph - N/A   Clear
3:35 AM 33.8 °F 27.0 °F 33.8 °F 100% 29.70 in 10.0 mi NW 8.1 mph - N/A   Clear
3:55 AM 32.0 °F 24.8 °F 32.0 °F 100% 29.71 in 10.0 mi NW 8.1 mph - N/A   Clear
4:15 AM 32.0 °F 25.6 °F 32.0 °F 100% 29.71 in 10.0 mi NW 6.9 mph - N/A   Clear
4:35 AM 33.8 °F 28.6 °F 33.8 °F 100% 29.71 in 10.0 mi NNW 5.8 mph - N/A   Clear
4:55 AM 32.0 °F 26.4 °F 32.0 °F 100% 29.71 in 10.0 mi NW 5.8 mph - N/A   Clear
5:15 AM 32.0 °F 26.4 °F 32.0 °F 100% 29.71 in 10.0 mi WNW 5.8 mph - N/A   Clear
5:35 AM 32.0 °F 26.4 °F 32.0 °F 100% 29.72 in 10.0 mi NW 5.8 mph - N/A   Clear
5:45 AM 32.0 °F 27.5 °F 32.0 °F 100% 29.72 in 10.0 mi WNW 4.6 mph - N/A   Clear
6:45 AM 32.0 °F 25.6 °F 32.0 °F 100% 29.74 in 10.0 mi NW 6.9 mph - N/A   Clear
7:45 AM 33.8 °F 28.6 °F 33.8 °F 100% 29.76 in 10.0 mi NW 5.8 mph - N/A   Clear
8:45 AM 39.2 °F 35.0 °F 35.6 °F 87% 29.77 in 10.0 mi NW 5.8 mph - N/A   Clear
9:50 AM 42.8 °F 38.0 °F 37.4 °F 81% 29.79 in 10.0 mi NNW 8.1 mph - N/A   Clear
10:50 AM 46.4 °F 41.9 °F 39.2 °F 76% 29.80 in 10.0 mi NNW 9.2 mph 16.1 mph N/A   Clear
11:45 AM 48.2 °F - 37.4 °F 66% 29.82 in 10.0 mi NNW 12.7 mph - N/A   Scattered Clouds
12:45 PM 51.8 °F - 37.4 °F 58% 29.82 in 10.0 mi NW 11.5 mph - N/A   Mostly Cloudy
1:50 PM 51.8 °F - 37.4 °F 58% 29.82 in 10.0 mi West 13.8 mph 17.3 mph N/A   Scattered Clouds
2:50 PM 53.6 °F - 33.8 °F 47% 29.83 in 10.0 mi NW 11.5 mph 17.3 mph N/A   Mostly Cloudy
3:50 PM 51.8 °F - 30.2 °F 44% 29.84 in 10.0 mi NNW 18.4 mph 20.7 mph N/A   Scattered Clouds
4:45 PM 50.0 °F - 32.0 °F 50% 29.86 in 10.0 mi NW 16.1 mph 21.9 mph N/A   Scattered Clouds
5:52 PM 48.2 °F - 30.2 °F 50% 29.87 in 10.0 mi NW 15.0 mph - N/A   Scattered Clouds
6:55 PM 46.4 °F 41.9 °F 26.6 °F 46% 29.89 in 10.0 mi North 9.2 mph - N/A   Scattered Clouds
7:45 PM 44.6 °F 40.2 °F 26.6 °F 49% 29.91 in 10.0 mi NNW 8.1 mph - N/A   Clear
8:52 PM 39.2 °F 35.9 °F 26.6 °F 61% 29.93 in 10.0 mi NW 4.6 mph - N/A   Clear
10:15 PM 35.6 °F 32.8 °F 26.6 °F 70% 29.93 in 10.0 mi WNW 3.5 mph - N/A   Clear
10:35 PM 37.4 °F 34.9 °F 26.6 °F 65% 29.93 in 10.0 mi WNW 3.5 mph - N/A   Clear
10:55 PM 33.8 °F 29.6 °F 26.6 °F 75% 29.93 in 10.0 mi NW 4.6 mph - N/A   Clear
11:15 PM 35.6 °F - 26.6 °F 70% 29.93 in 10.0 mi Calm Calm - N/A   Clear
11:35 PM 35.6 °F - 26.6 °F 70% 29.93 in 10.0 mi Calm Calm - N/A   Clear
11:55 PM 35.6 °F 31.7 °F 26.6 °F 70% 29.94 in 10.0 mi West 4.6 mph - N/A   Clear